Regional Weather Roundup
Issued by NWS Cleveland, OH

Home | Current Version | Previous Version | Graphics & Text | Print | Product List | Glossary On
Versions: 1 2 3 4 5 6 7 8 9 10 11 12 13 14 15 16 17 18 19 20 21 22 23 24 25 26 27 28 29 30 31 32 33 34 35 36 37 38 39 40 41 42 43 44 45 46 47 48 49 50
461
ASUS41 KCLE 191000
RWRCLE
OHIO REGIONAL WEATHER ROUNDUP
NATIONAL WEATHER SERVICE WILMINGTON, OH
600 AM EDT SAT AUG 19 2017

NOTE: "FAIR" INDICATES FEW OR NO CLOUDS BELOW 12,000 FEET WITH NO
SIGNIFICANT WEATHER AND/OR OBSTRUCTIONS TO VISIBILITY.

OHZ001>008-015>018-024>027-034-035-043-044-191100-
   NORTHWEST OHIO

CITY           SKY/WX    TMP DP  RH WIND       PRES   REMARKS
DEFIANCE       LGT RAIN  61  59  93 S5        29.89F
FINDLAY        CLOUDY    65  62  90 NW9       29.91R
TOLEDO EXPRESS TSTM      63  63 100 SW7       29.91R FOG
TOLEDO EXEC    LGT RAIN  65  63  93 W7        29.90R
LIMA           MOCLDY    66  63  90 SW3       29.90R
$$

OHZ009>014-019>023-028>033-038-089-191100-
   NORTHEAST OHIO

CITY           SKY/WX    TMP DP  RH WIND       PRES   REMARKS
CLE-HOPKINS    MOCLDY    66  62  87 S5        29.90S
CLE-LAKEFRONT  FAIR      68  62  81 S5        29.87S
CUY CO. ARPT   NOT AVBL
LORAIN-ELYRIA  FAIR      62  57  83 S6        29.89S
ASHTABULA      FAIR      64  63  96 CALM      29.89S
AKRON-CANTON   FAIR      64  60  87 SW5       29.92R
WOOSTER        NOT AVBL
MANSFIELD      FAIR      64  63  96 S5        29.91F
YOUNGSTOWN     FAIR      63  61  93 CALM      29.91R
$$

OHZ042-051>053-060>062-070>072-077>081-191100-
  SOUTHWEST OHIO

CITY           SKY/WX    TMP DP  RH WIND       PRES   REMARKS
CINC-COVINGTON MOCLDY    69  67  93 CALM      29.95R
CINC-LUNKEN    FAIR      67  67 100 CALM      29.95R
HAMILTON       FAIR      67  67 100 CALM      29.95R
DAYTON         NOT AVBL
WRIGHT-PAT AFB MOCLDY    67  66  99 S3        29.93R
DAYTON GENERAL MOCLDY    68  64  87 S6        29.94R
WILMINGTON     FAIR      65  65 100 S6        29.94R
$$

OHZ036-037-039>041-045>050-054>059-063>069-073>076-082>088-191100-
  CENTRAL AND SOUTHEAST OHIO

CITY           SKY/WX    TMP DP  RH WIND       PRES   REMARKS
COLUMBUS       CLOUDY    67  66  97 SE5       29.92R
OSU AIRPORT    FAIR      67  66  97 S5        29.91S
BOLTON FIELD   NOT AVBL
RICKENBACK AFB NOT AVBL
NEWARK         FAIR      64  62  93 CALM      29.92S
MARION         FAIR      64  62  93 S5        29.90F
LANCASTER      FAIR      64  64 100 CALM      29.93S
ZANESVILLE     FAIR      65  62  90 S3        29.93R
NEW PHILLY     FOG       63  63 100 CALM      29.92S VSB 1/4
$$




USA.gov is the U.S. government's official web portal to all federal, state and local government web resources and services.